Regional Weather Roundup
Issued by NWS Little Rock, AR

Home | Current Version | Previous Version | Text Only | Print | Product List | Glossary On
Versions: 1 2 3 4 5 6 7 8 9 10 11 12 13 14 15 16 17 18 19 20 21 22 23 24 25 26 27 28 29 30 31 32 33 34 35 36 37 38 39 40 41 42 43 44 45 46 47 48 49 50
000
ASUS44 KLZK 310305
RWRLZK

WEATHER ROUNDUP FOR ARKANSAS
NATIONAL WEATHER SERVICE LITTLE ROCK AR
1000 PM CDT THU JUL 30 2015

NOTE: "FAIR" INDICATES FEW OR NO CLOUDS BELOW 12,000 FEET WITH NO
SIGNIFICANT WEATHER AND/OR OBSTRUCTIONS TO VISIBILITY.

ARZ001-003-010-029-310400-
NORTHWEST ARKANSAS

CITY           SKY/WX    TMP DP  RH WIND       PRES   REMARKS
FAYETTEVILLE   PTCLDY    72  69  90 CALM      30.15R
FORT SMITH     CLOUDY    79  71  76 S3        30.10R
HARRISON       PTCLDY    71  65  81 CALM      30.17R
BENTONVILLE    CLEAR     77  63  61 E5        30.17R
ROGERS         CLEAR     73  68  84 CALM      30.17R
SILOAM SPGS    CLEAR     75  63  64 CALM      30.14R
HIGHFILL       CLEAR     77  66  68 E5        30.16R
$$

ARZ004-005-016-310400-
NORTH CENTRAL ARKANSAS

CITY           SKY/WX    TMP DP  RH WIND       PRES   REMARKS
BATESVILLE     MOCLDY    73  66  78 NE3       30.11R
FLIPPIN        MOCLDY    73  66  78 CALM      30.12R
MTN HOME       MOCLDY    72  66  81 CALM      30.14R
$$

ARZ040-041-310400-
WEST CENTRAL ARKANSAS

CITY           SKY/WX    TMP DP  RH WIND       PRES   REMARKS
MENA           MOCLDY    73  73 100 CALM      30.13R
MOUNT IDA      MOCLDY    74  73  97 CALM      30.09R FOG
$$

ARZ009-017-025-026-028-310400-
NORTHEAST ARKANSAS

CITY           SKY/WX    TMP DP  RH WIND       PRES   REMARKS
JONESBORO      CLEAR     72  66  81 N3        30.10R
NEWPORT        PTCLDY    76  69  79 NE3       30.12R
WALNUT RIDGE   CLEAR     79  64  61 NE3       30.11R
BLYTHEVILLE    CLEAR     72  69  90 N5        30.11R
$$

ARZ022-023-033-042-044-310400-
CENTRAL ARKANSAS

CITY           SKY/WX    TMP DP  RH WIND       PRES   REMARKS
LITTLE ROCK    MOCLDY    78  63  59 NE5       30.09R
N LITTLE ROCK  MOCLDY    79  65  62 NE7       30.09R
JACKSONVILLE   PTCLDY    75  64  68 NE3       30.09R
SEARCY         PTCLDY    78  65  63 NE8       30.11R
HOT SPRINGS    MOCLDY    80  65  59 NE5       30.10R
RUSSELLVILLE   CLOUDY    79  65  62 E5        30.10R
CLINTON        LGT RAIN  72  68  88 CALM      30.13R
$$

ARZ036-310400-
EAST ARKANSAS

CITY           SKY/WX    TMP DP  RH WIND       PRES   REMARKS
WEST MEMPHIS   CLEAR     75  65  70 NE5       30.08R
$$

ARZ050-053-066-070-073-310400-
SOUTHWEST ARKANSAS

CITY           SKY/WX    TMP DP  RH WIND       PRES   REMARKS
ARKADELPHIA    FAIR      81  70  69 NE3       30.08R
CAMDEN         PTCLDY    77  64  65 NE5       30.05S
TEXARKANA      CLOUDY    77  73  87 CALM      30.06R
EL DORADO      MOCLDY    80  67  64 NE8       30.05S
DE QUEEN       MOCLDY    76  74  93 E3        30.05R
$$

ARZ056-057-069-310400-
SOUTHEAST ARKANSAS

CITY           SKY/WX    TMP DP  RH WIND       PRES   REMARKS
PINE BLUFF     PTCLDY    77  66  68 NE3       30.07S
STUTTGART      PTCLDY    75  66  73 MISG      30.08S
MONTICELLO     CLEAR     79  66  64 NE6       30.06R

$$




USA.gov is the U.S. government's official web portal to all federal, state and local government web resources and services.